TimeEST,TemperatureF,Dew PointF,Humidity,Sea Level PressureIn,VisibilityMPH,Wind Direction,Wind SpeedMPH,Gust SpeedMPH,PrecipitationIn,Events,Conditions,WindDirDegrees,DateUTC
12:51 AM,21.0,9.0,60,30.39,10.0,WNW,9.2,-,N/A,,Overcast,300,2009-01-01 05:51:00
1:51 AM,19.9,10.0,65,30.40,10.0,West,9.2,-,N/A,,Overcast,280,2009-01-01 06:51:00
2:51 AM,19.9,9.0,62,30.42,9.0,West,6.9,-,0.00,,Overcast,280,2009-01-01 07:51:00
3:51 AM,19.0,8.1,62,30.40,10.0,West,3.5,-,N/A,Snow,Light Snow,270,2009-01-01 08:51:00
4:51 AM,19.0,9.0,65,30.40,9.0,West,5.8,-,0.00,Snow,Light Snow,260,2009-01-01 09:51:00
5:51 AM,17.1,9.0,71,30.39,10.0,South,3.5,-,0.00,,Mostly Cloudy,180,2009-01-01 10:51:00
6:51 AM,15.1,9.0,77,30.41,10.0,SSW,6.9,-,N/A,,Scattered Clouds,210,2009-01-01 11:51:00
7:51 AM,15.1,9.0,77,30.40,10.0,South,5.8,-,N/A,,Scattered Clouds,180,2009-01-01 12:51:00
8:51 AM,16.0,9.0,74,30.39,10.0,South,5.8,-,N/A,,Mostly Cloudy,180,2009-01-01 13:51:00
9:51 AM,19.9,9.0,62,30.39,10.0,SSW,11.5,-,N/A,,Mostly Cloudy,200,2009-01-01 14:51:00
10:51 AM,21.0,9.0,60,30.38,10.0,South,12.7,21.9,N/A,,Mostly Cloudy,190,2009-01-01 15:51:00
11:51 AM,21.9,10.0,60,30.33,10.0,South,12.7,-,N/A,,Mostly Cloudy,180,2009-01-01 16:51:00
12:51 PM,24.1,10.9,57,30.28,10.0,South,11.5,-,N/A,,Overcast,170,2009-01-01 17:51:00
1:51 PM,25.0,10.9,55,30.23,10.0,South,11.5,-,N/A,,Overcast,170,2009-01-01 18:51:00
2:51 PM,26.1,10.9,53,30.20,10.0,South,11.5,-,N/A,,Overcast,180,2009-01-01 19:51:00
3:51 PM,26.1,12.0,55,30.17,10.0,South,12.7,-,N/A,,Mostly Cloudy,170,2009-01-01 20:51:00
4:51 PM,27.0,12.0,53,30.13,10.0,SSE,12.7,-,N/A,,Mostly Cloudy,150,2009-01-01 21:51:00
5:51 PM,27.0,12.0,53,30.09,10.0,SSE,11.5,-,N/A,,Mostly Cloudy,150,2009-01-01 22:51:00
6:51 PM,27.0,14.0,58,30.03,10.0,SSE,11.5,-,N/A,,Overcast,150,2009-01-01 23:51:00
7:51 PM,28.0,12.9,53,29.98,10.0,SSE,18.4,-,N/A,,Overcast,160,2009-01-02 00:51:00
8:51 PM,28.9,12.0,49,29.96,10.0,South,13.8,21.9,N/A,,Overcast,180,2009-01-02 01:51:00
9:51 PM,30.0,12.0,47,29.93,10.0,South,11.5,-,N/A,,Overcast,180,2009-01-02 02:51:00
10:51 PM,30.0,12.9,49,29.89,10.0,South,10.4,-,N/A,,Overcast,180,2009-01-02 03:51:00
11:51 PM,30.0,12.9,49,29.87,10.0,South,11.5,-,N/A,,Overcast,190,2009-01-02 04:51:00